Starlink 1523

operational
NORAD ID: 46028 Int'l Des: 2020-055 Owner: SPXS Country: US Constellation: starlink
LEOCIRCULARSTARLINK_TYPE

Über Starlink 1523

Beschreibung wird geladen...

Live-Position

3D-Globus wird geladen...

Nächste Überflüge

Höhenverlauf

Altitude vs Time

uPlot chart will show altitude changes over time

Zweizeiliger Elementsatz

1 46028U 20055B 25308.77925041 .00000919 00000-0 80575-4 0 9993
2 46028 53.0552 327.3656 0001468 89.4478 270.6679 15.06405338290073
Epoch: 4. Nov. 2025 • Age: 8 hours

Aktueller Status

Höhe 552.0 km
Geschwindigkeit 7.59 km/s
Subsatellitenpunkt 49.97°N, 8.78°W
Startdatum 7. Aug. 2020
Alter 5.2 years
Typ internet

Technische Details

Klassifizierung Payload
Masse 260.00 kg
Trockenmasse 248.00 kg
Gesamtmasse 260.00 kg
Länge 0.20 m
Durchmesser 2.80 m
Spannweite 9.00 m
Form Box + pan
Hersteller SPXS
Bus-Typ Starlink
Phasenstatus In Orbit
Besitzer/Staat SPXS/US

Große Konstellationen

Loading constellations...